Peoria, IL

6:01 AM CDT on May 27, 2017 (GMT -0500)
Greater Peoria Regional

Weather History for KPIA - January, 2013

Change the Weather History Date:

Thursday, January 31, 2013

  Actual Average Record
Temperature  
Mean Temperature 14 °F 26 °F  
Max Temperature 22 °F 34 °F 70 °F (1989)
Min Temperature 5 °F 18 °F -13 °F (1996)
Degree Days  
Heating Degree Days 51 39  
Month to date heating degree days 1141 1238  
Since 1 July heating degree days 3287 3521  
Cooling Degree Days 0 0  
Month to date cooling degree days 0 0  
Year to date cooling degree days 0 0  
Moisture  
Dew Point 5 °F    
Average Humidity 65    
Maximum Humidity 74    
Minimum Humidity 56    
Precipitation  
Precipitation T in 0.06 in 0.68 in (2002)
Month to date precipitation 3.83 1.78  
Year to date precipitation 3.83 1.78  
Snow  
Snow 0.10 in 0.20 in 5.60 in (1914)
Month to date snowfall 0.4 6.9  
Since 1 July snowfall 3.6 15.1  
Snow Depth T in    
Sea Level Pressure  
Sea Level Pressure 30.04 in    
Wind  
Wind Speed 16 mph (WNW)    
Max Wind Speed 25 mph    
Max Gust Speed 37 mph    
Visibility 8 miles    
Events Snow    
T = Trace of Precipitation, MM = Missing Value Source: NWS Daily Summary

Daily Weather History Graph

Daily Weather History Graph

Search for Another Location

Airport or City:

Trip Planner

Search our weather history database for the weather conditions in past years. The results will help you decide how hot, cold, wet, or windy it might be!

Date:

Astronomy

Jan. 31, 2013 Rise Set
Actual Time 7:09 AM CST 5:15 PM CST
Civil Twilight 6:40 AM CST 5:44 PM CST
Nautical Twilight 6:07 AM CST 6:17 PM CST
Astronomical Twilight 5:35 AM CST 6:49 PM CST
Moon 10:19 PM CST (1/31) 9:07 AM CST (1/31)
Length of Visible Light 11h 04m
Length of Day
10h 06m
Waning Gibbous, 79% of the Moon is Illuminated
Jan 31
Waning Gibbous
Feb 3
Last Quarter
Feb 10
New
Feb 17
First Quarter
Feb 25
Full

Hourly Weather History & Observations

Time (CST) Temp. Windchill Dew Point Humidity Pressure Visibility Wind Dir Wind Speed Gust Speed Precip Events Conditions
12:54 AM 18.0 °F 4.2 °F 10.0 °F 71% 29.84 in 10.0 mi WNW 13.8 mph 25.3 mph 0.00 in   Overcast
1:34 AM 19.0 °F 6.1 °F 10.9 °F 71% 29.82 in 10.0 mi West 12.7 mph 18.4 mph N/A   Overcast
1:54 AM 19.0 °F 6.8 °F 12.0 °F 74% 29.85 in 10.0 mi West 11.5 mph - N/A   Overcast
2:09 AM 19.9 °F 7.3 °F 12.9 °F 74% 29.82 in 10.0 mi West 12.7 mph - N/A   Overcast
2:39 AM 21.0 °F 7.1 °F 14.0 °F 74% 29.83 in 10.0 mi West 16.1 mph 28.8 mph N/A   Overcast
2:54 AM 21.0 °F 7.1 °F 14.0 °F 74% 29.86 in 10.0 mi WNW 16.1 mph 24.2 mph N/A   Overcast
3:54 AM 21.9 °F 7.8 °F 15.1 °F 75% 29.85 in 8.0 mi West 17.3 mph 26.5 mph 0.00 in Snow Light Snow
4:10 AM 21.9 °F 8.7 °F 15.1 °F 75% 29.82 in 9.0 mi West 15.0 mph 23.0 mph 0.00 in   Overcast
4:54 AM 21.9 °F 8.2 °F 14.0 °F 72% 29.86 in 10.0 mi WNW 16.1 mph 26.5 mph 0.00 in   Overcast
5:54 AM 19.0 °F 3.2 °F 9.0 °F 65% 29.88 in 10.0 mi West 19.6 mph 27.6 mph N/A   Scattered Clouds
6:42 AM 18.0 °F 5.4 °F 10.0 °F 71% 29.88 in 10.0 mi West 11.5 mph - N/A   Mostly Cloudy
6:54 AM 17.1 °F 3.0 °F 10.0 °F 74% 29.92 in 10.0 mi West 13.8 mph 21.9 mph N/A   Mostly Cloudy
7:10 AM 17.1 °F 5.0 °F 9.0 °F 71% 29.89 in 10.0 mi West 10.4 mph - N/A   Partly Cloudy
7:41 AM 16.0 °F 2.9 °F 9.0 °F 74% 29.90 in 4.0 mi WNW 11.5 mph - 0.00 in Snow Light Snow
7:49 AM 15.8 °F 5.1 °F 10.4 °F 79% 29.90 in 2.0 mi WNW 8.1 mph - 0.00 in Snow Light Snow
7:54 AM 16.0 °F 3.6 °F 9.0 °F 74% 29.94 in 3.0 mi WNW 10.4 mph 19.6 mph 0.00 in Snow Light Snow
8:54 AM 16.0 °F 1.1 °F 8.1 °F 71% 29.96 in 8.0 mi West 15.0 mph 24.2 mph 0.00 in   Overcast
9:44 AM 16.0 °F 2.3 °F 9.0 °F 74% 29.95 in 1.8 mi West 12.7 mph 19.6 mph 0.00 in Snow Light Snow
9:54 AM 16.0 °F 0.1 °F 9.0 °F 74% 29.99 in 2.5 mi West 17.3 mph 23.0 mph 0.00 in Snow Light Snow
10:01 AM 16.0 °F 0.6 °F 8.1 °F 71% 29.96 in 5.0 mi WNW 16.1 mph - 0.00 in Snow Light Snow
10:37 AM 15.1 °F 1.8 °F 7.0 °F 70% 29.98 in 2.0 mi WNW 11.5 mph 20.7 mph 0.00 in Snow Light Snow
10:50 AM 15.8 °F 2.7 °F 6.8 °F 68% 29.98 in 5.0 mi WNW 11.5 mph 20.7 mph 0.00 in Snow Light Snow
10:54 AM 15.1 °F 1.1 °F 7.0 °F 70% 30.02 in 6.0 mi WNW 12.7 mph 20.7 mph 0.00 in Snow Light Snow
11:54 AM 16.0 °F 1.1 °F 6.1 °F 65% 30.02 in 8.0 mi WNW 15.0 mph 23.0 mph 0.00 in   Overcast
12:54 PM 17.1 °F 0.6 °F 5.0 °F 59% 30.03 in 10.0 mi West 19.6 mph 31.1 mph N/A   Overcast
1:54 PM 14.0 °F -3.0 °F 3.0 °F 62% 30.04 in 10.0 mi WNW 18.4 mph 27.6 mph 0.00 in   Mostly Cloudy
2:03 PM 14.0 °F -1.4 °F 3.0 °F 62% 30.01 in 10.0 mi WNW 15.0 mph 26.5 mph N/A   Mostly Cloudy
2:30 PM 14.0 °F -2.5 °F 3.0 °F 62% 30.02 in 10.0 mi WNW 17.3 mph 32.2 mph N/A   Overcast
2:54 PM 12.9 °F -4.4 °F 3.0 °F 65% 30.07 in 9.0 mi WNW 18.4 mph 28.8 mph N/A   Overcast
3:54 PM 12.0 °F -6.0 °F 3.0 °F 67% 30.11 in 5.0 mi WNW 19.6 mph 29.9 mph N/A   Haze
4:33 PM 10.9 °F -6.5 °F -0.0 °F 61% 30.09 in 10.0 mi WNW 17.3 mph 27.6 mph 0.00 in   Mostly Cloudy
4:54 PM 10.0 °F -5.9 °F 1.0 °F 67% 30.14 in 9.0 mi WNW 13.8 mph 26.5 mph 0.00 in   Mostly Cloudy
5:14 PM 10.0 °F -7.6 °F -0.0 °F 64% 30.11 in 9.0 mi WNW 17.3 mph 29.9 mph N/A   Overcast
5:54 PM 9.0 °F -8.5 °F -0.9 °F 64% 30.17 in 10.0 mi WNW 16.1 mph 27.6 mph N/A   Mostly Cloudy
6:13 PM 8.1 °F -11.2 °F -2.9 °F 61% 30.14 in 10.0 mi WNW 19.6 mph 31.1 mph N/A   Scattered Clouds
6:34 PM 8.1 °F -8.4 °F 1.0 °F 73% 30.15 in 3.0 mi WNW 13.8 mph 24.2 mph 0.00 in Snow Light Snow
6:54 PM 8.1 °F -12.6 °F -4.0 °F 58% 30.20 in 10.0 mi WNW 23.0 mph 34.5 mph 0.00 in   Mostly Cloudy
7:20 PM 8.1 °F -11.2 °F -4.0 °F 58% 30.18 in 10.0 mi WNW 19.6 mph 36.8 mph N/A   Overcast
7:54 PM 7.0 °F -11.0 °F -2.9 °F 64% 30.23 in 10.0 mi WNW 16.1 mph 33.4 mph N/A   Overcast
8:54 PM 6.1 °F -8.7 °F -2.0 °F 69% 30.26 in 10.0 mi WNW 10.4 mph 25.3 mph N/A   Mostly Cloudy
9:54 PM 6.1 °F -12.2 °F -2.9 °F 67% 30.29 in 4.0 mi WNW 16.1 mph 32.2 mph 0.00 in   Overcast
10:28 PM 6.1 °F -10.2 °F -0.9 °F 73% 30.26 in 2.0 mi NW 12.7 mph 24.2 mph 0.00 in Snow Light Snow
10:40 PM 5.0 °F -15.2 °F -4.0 °F 66% 30.26 in 7.0 mi WNW 19.6 mph 27.6 mph 0.00 in Snow Light Snow
10:54 PM 5.0 °F -14.2 °F -4.0 °F 66% 30.31 in 10.0 mi WNW 17.3 mph 27.6 mph 0.00 in   Scattered Clouds
11:38 PM 5.0 °F -12.3 °F -2.0 °F 73% 30.29 in 7.0 mi WNW 13.8 mph 20.7 mph N/A   Mostly Cloudy
11:54 PM 5.0 °F -10.8 °F -2.0 °F 73% 30.33 in 5.0 mi NW 11.5 mph - N/A   Haze